Time,TemperatureF,DewpointF,PressureIn,WindDirection,WindDirectionDegrees,WindSpeedMPH,WindSpeedGustMPH,Humidity,HourlyPrecipIn,Conditions,Clouds,dailyrainin,SoftwareType,DateUTC
2013-06-02 00:02:00,77.2,30.4,16.18,NNW,334,9.0,9.0,18,0.00,,,0.00,Wunderground v.1.15,2013-06-02 07:02:00,
2013-06-02 00:08:00,77.2,30.4,16.18,NW,319,8.0,9.0,18,0.00,,,0.00,Wunderground v.1.15,2013-06-02 07:08:00,
2013-06-02 00:13:00,77.1,30.3,16.18,NNW,346,8.0,16.0,18,0.00,,,0.00,Wunderground v.1.15,2013-06-02 07:13:00,
2013-06-02 00:19:00,76.9,30.1,16.18,NW,304,9.0,16.0,18,0.00,,,0.00,Wunderground v.1.15,2013-06-02 07:19:00,
2013-06-02 00:24:00,76.7,31.3,16.18,NNW,341,8.0,10.0,19,0.00,,,0.00,Wunderground v.1.15,2013-06-02 07:24:00,
2013-06-02 00:30:00,76.6,31.2,16.18,North,355,8.0,10.0,19,0.00,,,0.00,Wunderground v.1.15,2013-06-02 07:30:00,
2013-06-02 00:35:00,76.5,31.1,16.18,NW,325,8.0,12.0,19,0.00,,,0.00,Wunderground v.1.15,2013-06-02 07:35:00,
2013-06-02 00:40:00,76.3,31.0,16.18,NW,319,8.0,8.0,19,0.00,,,0.00,Wunderground v.1.15,2013-06-02 07:40:00,
2013-06-02 00:46:00,76.2,30.9,16.18,NW,325,7.0,10.0,19,0.00,,,0.00,Wunderground v.1.15,2013-06-02 07:46:00,
2013-06-02 00:52:00,76.1,32.1,16.18,NW,313,7.0,8.0,20,0.00,,,0.00,Wunderground v.1.15,2013-06-02 07:52:00,
2013-06-02 00:57:00,76.0,32.0,16.18,NNW,329,7.0,10.0,20,0.00,,,0.00,Wunderground v.1.15,2013-06-02 07:57:00,
2013-06-02 01:03:00,76.0,32.0,16.18,North,355,7.0,10.0,20,0.00,,,0.00,Wunderground v.1.15,2013-06-02 08:03:00,
2013-06-02 01:08:00,75.9,31.9,16.18,NW,315,7.0,10.0,20,0.00,,,0.00,Wunderground v.1.15,2013-06-02 08:08:00,
2013-06-02 01:14:00,75.9,31.9,16.18,NNW,330,6.0,7.0,20,0.00,,,0.00,Wunderground v.1.15,2013-06-02 08:14:00,
2013-06-02 01:20:00,75.5,31.6,16.18,North,360,6.0,9.0,20,0.00,,,0.00,Wunderground v.1.15,2013-06-02 08:20:00,
2013-06-02 01:25:00,75.4,31.5,16.18,North,360,4.0,9.0,20,0.00,,,0.00,Wunderground v.1.15,2013-06-02 08:25:00,
2013-06-02 01:31:00,75.4,32.7,16.18,North,355,2.0,2.0,21,0.00,,,0.00,Wunderground v.1.15,2013-06-02 08:31:00,
2013-06-02 01:37:00,74.9,32.3,16.18,North,355,1.0,5.0,21,0.00,,,0.00,Wunderground v.1.15,2013-06-02 08:37:00,
2013-06-02 01:42:00,74.0,32.7,16.18,North,355,1.0,3.0,22,0.00,,,0.00,Wunderground v.1.15,2013-06-02 08:42:00,
2013-06-02 01:48:00,73.1,33.1,16.18,NNW,331,2.0,6.0,23,0.00,,,0.00,Wunderground v.1.15,2013-06-02 08:48:00,
2013-06-02 01:54:00,73.1,33.1,16.18,NW,325,3.0,3.0,23,0.00,,,0.00,Wunderground v.1.15,2013-06-02 08:54:00,
2013-06-02 02:00:00,72.8,32.8,16.18,NW,318,3.0,3.0,23,0.00,,,0.00,Wunderground v.1.15,2013-06-02 09:00:00,
2013-06-02 02:06:00,72.4,32.5,16.18,NW,319,2.0,4.0,23,0.00,,,0.00,Wunderground v.1.15,2013-06-02 09:06:00,
2013-06-02 02:11:00,72.4,33.5,16.18,NW,318,2.0,2.0,24,0.00,,,0.00,Wunderground v.1.15,2013-06-02 09:11:00,
2013-06-02 02:17:00,72.2,33.4,16.18,NW,319,1.0,5.0,24,0.00,,,0.00,Wunderground v.1.15,2013-06-02 09:17:00,
2013-06-02 02:23:00,71.7,33.0,16.18,NW,319,2.0,3.0,24,0.00,,,0.00,Wunderground v.1.15,2013-06-02 09:23:00,
2013-06-02 02:28:00,70.9,32.3,16.18,NW,317,2.0,4.0,24,0.00,,,0.00,Wunderground v.1.15,2013-06-02 09:28:00,
2013-06-02 02:34:00,70.4,32.9,16.18,NW,317,3.0,6.0,25,0.00,,,0.00,Wunderground v.1.15,2013-06-02 09:34:00,
2013-06-02 02:39:00,70.3,32.8,16.18,NW,317,4.0,6.0,25,0.00,,,0.00,Wunderground v.1.15,2013-06-02 09:39:00,
2013-06-02 02:44:00,70.2,32.7,16.18,NW,313,4.0,5.0,25,0.00,,,0.00,Wunderground v.1.15,2013-06-02 09:44:00,
2013-06-02 02:50:00,70.0,32.5,16.18,NW,317,4.0,5.0,25,0.00,,,0.00,Wunderground v.1.15,2013-06-02 09:50:00,
2013-06-02 02:55:00,70.1,33.6,16.18,NW,310,4.0,5.0,26,0.00,,,0.00,Wunderground v.1.15,2013-06-02 09:55:00,
2013-06-02 03:01:00,70.5,33.9,16.18,NW,311,3.0,3.0,26,0.00,,,0.00,Wunderground v.1.15,2013-06-02 10:01:00,
2013-06-02 03:07:00,71.2,34.5,16.18,NW,310,2.0,4.0,26,0.00,,,0.00,Wunderground v.1.15,2013-06-02 10:07:00,
2013-06-02 03:12:00,71.4,34.7,16.18,NW,310,3.0,4.0,26,0.00,,,0.00,Wunderground v.1.15,2013-06-02 10:12:00,
2013-06-02 03:18:00,71.5,34.8,16.18,NW,310,3.0,5.0,26,0.00,,,0.00,Wunderground v.1.15,2013-06-02 10:18:00,
2013-06-02 03:23:00,71.8,34.1,16.18,NW,309,3.0,5.0,25,0.00,,,0.00,Wunderground v.1.15,2013-06-02 10:23:00,
2013-06-02 03:29:00,71.7,34.0,16.18,NW,307,3.0,5.0,25,0.00,,,0.00,Wunderground v.1.15,2013-06-02 10:29:00,
2013-06-02 03:35:00,71.2,34.5,16.18,NW,308,2.0,3.0,26,0.00,,,0.00,Wunderground v.1.15,2013-06-02 10:35:00,
2013-06-02 03:40:00,70.6,34.0,16.18,NW,306,2.0,7.0,26,0.00,,,0.00,Wunderground v.1.15,2013-06-02 10:40:00,
2013-06-02 03:46:00,70.3,33.8,16.18,NW,304,3.0,7.0,26,0.00,,,0.00,Wunderground v.1.15,2013-06-02 10:46:00,
2013-06-02 03:52:00,69.8,34.3,16.18,WNW,303,3.0,3.0,27,0.00,,,0.00,Wunderground v.1.15,2013-06-02 10:52:00,
2013-06-02 03:57:00,69.8,34.3,16.18,NW,304,1.0,3.0,27,0.00,,,0.00,Wunderground v.1.15,2013-06-02 10:57:00,
2013-06-02 04:02:00,69.8,34.3,16.18,WNW,303,1.0,3.0,27,0.00,,,0.00,Wunderground v.1.15,2013-06-02 11:02:00,
2013-06-02 04:08:00,69.8,34.3,16.18,WNW,303,1.0,3.0,27,0.00,,,0.00,Wunderground v.1.15,2013-06-02 11:08:00,
2013-06-02 04:14:00,69.8,34.3,16.18,WNW,303,0.0,1.0,27,0.00,,,0.00,Wunderground v.1.15,2013-06-02 11:14:00,
2013-06-02 04:19:00,69.6,34.1,16.18,WNW,303,0.0,1.0,27,0.00,,,0.00,Wunderground v.1.15,2013-06-02 11:19:00,
2013-06-02 04:24:00,69.5,34.0,16.18,WNW,303,0.0,2.0,27,0.00,,,0.00,Wunderground v.1.15,2013-06-02 11:24:00,
2013-06-02 04:30:00,69.4,33.9,16.18,WNW,303,1.0,3.0,27,0.00,,,0.00,Wunderground v.1.15,2013-06-02 11:30:00,
2013-06-02 04:36:00,69.8,34.3,16.18,North,355,3.0,7.0,27,0.00,,,0.00,Wunderground v.1.15,2013-06-02 11:36:00,
2013-06-02 04:41:00,69.5,34.9,16.18,North,355,3.0,3.0,28,0.00,,,0.00,Wunderground v.1.15,2013-06-02 11:41:00,
2013-06-02 04:47:00,69.1,33.7,16.18,North,355,2.0,4.0,27,0.00,,,0.00,Wunderground v.1.15,2013-06-02 11:47:00,
2013-06-02 04:52:00,69.2,33.8,16.18,North,355,2.0,5.0,27,0.00,,,0.00,Wunderground v.1.15,2013-06-02 11:52:00,
2013-06-02 04:57:00,69.0,33.6,16.18,North,355,2.0,5.0,27,0.00,,,0.00,Wunderground v.1.15,2013-06-02 11:57:00,
2013-06-02 05:03:00,67.8,33.5,16.18,North,355,1.0,1.0,28,0.00,,,0.00,Wunderground v.1.15,2013-06-02 12:03:00,
2013-06-02 05:09:00,66.8,32.6,16.18,North,350,1.0,2.0,28,0.00,,,0.00,Wunderground v.1.15,2013-06-02 12:09:00,
2013-06-02 05:15:00,66.9,32.7,16.18,NNW,345,2.0,4.0,28,0.00,,,0.00,Wunderground v.1.15,2013-06-02 12:15:00,
2013-06-02 05:21:00,66.8,33.5,16.18,NNW,346,1.0,1.0,29,0.00,,,0.00,Wunderground v.1.15,2013-06-02 12:21:00,
2013-06-02 05:26:00,66.4,32.3,16.18,NNW,345,0.0,1.0,28,0.00,,,0.00,Wunderground v.1.15,2013-06-02 12:26:00,
2013-06-02 05:32:00,66.1,32.9,16.18,NNW,346,0.0,0.0,29,0.00,,,0.00,Wunderground v.1.15,2013-06-02 12:32:00,
2013-06-02 05:37:00,66.1,32.9,16.18,NNW,345,0.0,1.0,29,0.00,,,0.00,Wunderground v.1.15,2013-06-02 12:37:00,
2013-06-02 05:42:00,66.0,32.8,16.18,NNW,346,0.0,0.0,29,0.00,,,0.00,Wunderground v.1.15,2013-06-02 12:42:00,
2013-06-02 05:48:00,65.7,33.4,16.18,NNE,29,0.0,0.0,30,0.00,,,0.00,Wunderground v.1.15,2013-06-02 12:48:00,
2013-06-02 05:54:00,65.4,32.3,16.18,NNE,29,0.0,0.0,29,0.00,,,0.00,Wunderground v.1.15,2013-06-02 12:54:00,
2013-06-02 06:00:00,65.5,33.2,16.18,NNE,29,0.0,0.0,30,0.00,,,0.00,Wunderground v.1.15,2013-06-02 13:00:00,
2013-06-02 06:06:00,65.2,33.0,16.18,NNE,29,0.0,1.0,30,0.00,,,0.00,Wunderground v.1.15,2013-06-02 13:06:00,
2013-06-02 06:11:00,65.3,33.0,16.18,NNE,29,1.0,1.0,30,0.00,,,0.00,Wunderground v.1.15,2013-06-02 13:11:00,
2013-06-02 06:17:00,65.4,32.3,16.18,NNE,29,2.0,3.0,29,0.00,,,0.00,Wunderground v.1.15,2013-06-02 13:17:00,
2013-06-02 06:23:00,65.7,32.5,16.18,NNE,25,1.0,1.0,29,0.00,,,0.00,Wunderground v.1.15,2013-06-02 13:23:00,
2013-06-02 06:28:00,65.9,32.7,16.18,NNE,25,0.0,1.0,29,0.00,,,0.00,Wunderground v.1.15,2013-06-02 13:28:00,
2013-06-02 06:34:00,66.2,33.0,16.18,NNE,25,0.0,0.0,29,0.00,,,0.00,Wunderground v.1.15,2013-06-02 13:34:00,
2013-06-02 06:39:00,66.6,33.3,16.18,NNE,25,0.0,0.0,29,0.00,,,0.00,Wunderground v.1.15,2013-06-02 13:39:00,
2013-06-02 06:45:00,66.8,32.6,16.18,NNE,25,0.0,0.0,28,0.00,,,0.00,Wunderground v.1.15,2013-06-02 13:45:00,
2013-06-02 06:50:00,67.0,33.7,16.18,NNE,25,0.0,0.0,29,0.00,,,0.00,Wunderground v.1.15,2013-06-02 13:50:00,
2013-06-02 06:56:00,67.3,33.1,16.18,NNE,25,0.0,0.0,28,0.00,,,0.00,Wunderground v.1.15,2013-06-02 13:56:00,
2013-06-02 07:01:00,67.5,33.2,16.18,NNE,25,0.0,0.0,28,0.00,,,0.00,Wunderground v.1.15,2013-06-02 14:01:00,
2013-06-02 07:07:00,67.9,32.7,23.96,NNE,25,0.0,0.0,27,0.00,,,0.00,Wunderground v.1.15,2013-06-02 14:07:00,
2013-06-02 07:12:00,69.3,32.9,25.20,NNE,25,0.0,0.0,26,0.00,,,0.00,Wunderground v.1.15,2013-06-02 14:12:00,
2013-06-02 07:18:00,70.9,33.3,25.20,NNE,25,0.0,0.0,25,0.00,,,0.00,Wunderground v.1.15,2013-06-02 14:18:00,
2013-06-02 07:24:00,72.6,33.7,25.20,NNE,25,0.0,1.0,24,0.00,,,0.00,Wunderground v.1.15,2013-06-02 14:24:00,
2013-06-02 07:30:00,74.2,34.0,25.20,NNE,25,0.0,0.0,23,0.00,,,0.00,Wunderground v.1.15,2013-06-02 14:30:00,
2013-06-02 07:36:00,75.2,34.8,25.20,NNE,25,0.0,0.0,23,0.00,,,0.00,Wunderground v.1.15,2013-06-02 14:36:00,
2013-06-02 07:41:00,75.9,34.3,25.20,NNE,26,0.0,0.0,22,0.00,,,0.00,Wunderground v.1.15,2013-06-02 14:41:00,
2013-06-02 07:47:00,76.6,34.9,25.20,NNE,26,0.0,1.0,22,0.00,,,0.00,Wunderground v.1.15,2013-06-02 14:47:00,
2013-06-02 07:52:00,77.2,35.4,25.20,NNE,26,0.0,0.0,22,0.00,,,0.00,Wunderground v.1.15,2013-06-02 14:52:00,
2013-06-02 07:58:00,77.7,34.6,25.20,SE,134,1.0,7.0,21,0.00,,,0.00,Wunderground v.1.15,2013-06-02 14:58:00,
2013-06-02 08:03:00,78.1,35.0,25.20,SE,134,2.0,3.0,21,0.00,,,0.00,Wunderground v.1.15,2013-06-02 15:03:00,
2013-06-02 08:09:00,78.6,34.2,25.20,SE,134,2.0,3.0,20,0.00,,,0.00,Wunderground v.1.15,2013-06-02 15:09:00,
2013-06-02 08:15:00,79.1,34.6,25.20,SE,128,1.0,3.0,20,0.00,,,0.00,Wunderground v.1.15,2013-06-02 15:15:00,
2013-06-02 08:20:00,79.4,34.8,25.20,SE,126,2.0,2.0,20,0.00,,,0.00,Wunderground v.1.15,2013-06-02 15:20:00,
2013-06-02 08:26:00,79.8,35.1,25.20,SE,126,1.0,2.0,20,0.00,,,0.00,Wunderground v.1.15,2013-06-02 15:26:00,
2013-06-02 08:31:00,80.0,35.3,25.20,SE,132,1.0,3.0,20,0.00,,,0.00,Wunderground v.1.15,2013-06-02 15:31:00,
2013-06-02 08:37:00,80.4,35.6,25.20,SE,142,2.0,4.0,20,0.00,,,0.00,Wunderground v.1.15,2013-06-02 15:37:00,
2013-06-02 08:42:00,80.7,35.9,25.20,SE,140,1.0,3.0,20,0.00,,,0.00,Wunderground v.1.15,2013-06-02 15:42:00,
2013-06-02 08:48:00,81.0,34.8,25.20,SE,139,2.0,5.0,19,0.00,,,0.00,Wunderground v.1.15,2013-06-02 15:48:00,
2013-06-02 08:53:00,81.2,35.0,25.20,SSE,151,2.0,5.0,19,0.00,,,0.00,Wunderground v.1.15,2013-06-02 15:53:00,
2013-06-02 08:59:00,81.6,35.3,25.20,SE,125,2.0,7.0,19,0.00,,,0.00,Wunderground v.1.15,2013-06-02 15:59:00,
2013-06-02 09:05:00,81.7,35.4,25.20,ESE,114,2.0,7.0,19,0.00,,,0.00,Wunderground v.1.15,2013-06-02 16:05:00,
2013-06-02 09:10:00,82.1,35.7,25.20,SE,130,2.0,5.0,19,0.00,,,0.00,Wunderground v.1.15,2013-06-02 16:10:00,
2013-06-02 09:15:00,82.2,35.8,25.20,SE,132,2.0,5.0,19,0.00,,,0.00,Wunderground v.1.15,2013-06-02 16:15:00,
2013-06-02 09:21:00,82.8,36.3,25.20,SSE,153,1.0,2.0,19,0.00,,,0.00,Wunderground v.1.15,2013-06-02 16:21:00,
2013-06-02 09:26:00,82.9,36.4,25.20,SSE,150,2.0,4.0,19,0.00,,,0.00,Wunderground v.1.15,2013-06-02 16:26:00,
2013-06-02 09:32:00,83.2,35.3,25.20,SE,137,2.0,4.0,18,0.00,,,0.00,Wunderground v.1.15,2013-06-02 16:32:00,
2013-06-02 09:38:00,83.3,35.4,25.20,SSE,167,3.0,8.0,18,0.00,,,0.00,Wunderground v.1.15,2013-06-02 16:38:00,
2013-06-02 09:43:00,83.9,35.8,25.20,SSE,161,2.0,3.0,18,0.00,,,0.00,Wunderground v.1.15,2013-06-02 16:43:00,
2013-06-02 09:49:00,84.4,36.2,25.20,SSE,161,1.0,4.0,18,0.00,,,0.00,Wunderground v.1.15,2013-06-02 16:49:00,
2013-06-02 09:54:00,84.4,34.8,25.20,South,169,2.0,7.0,17,0.00,,,0.00,Wunderground v.1.15,2013-06-02 16:54:00,
2013-06-02 10:00:00,84.6,35.0,25.20,SE,142,3.0,3.0,17,0.00,,,0.00,Wunderground v.1.15,2013-06-02 17:00:00,
2013-06-02 10:05:00,84.9,35.2,25.20,SSE,151,4.0,8.0,17,0.00,,,0.00,Wunderground v.1.15,2013-06-02 17:05:00,
2013-06-02 10:10:00,85.3,35.5,25.20,South,173,4.0,4.0,17,0.00,,,0.00,Wunderground v.1.15,2013-06-02 17:10:00,
2013-06-02 10:16:00,84.8,36.6,25.20,SSE,157,3.0,12.0,18,0.00,,,0.00,Wunderground v.1.15,2013-06-02 17:16:00,
2013-06-02 10:22:00,84.9,36.7,25.20,ESE,113,2.0,6.0,18,0.00,,,0.00,Wunderground v.1.15,2013-06-02 17:22:00,
2013-06-02 10:27:00,85.6,35.8,25.20,South,173,1.0,6.0,17,0.00,,,0.00,Wunderground v.1.15,2013-06-02 17:27:00,
2013-06-02 10:33:00,86.0,37.5,25.20,ESE,123,2.0,2.0,18,0.00,,,0.00,Wunderground v.1.15,2013-06-02 17:33:00,
2013-06-02 10:38:00,86.4,36.4,25.20,SSE,157,2.0,5.0,17,0.00,,,0.00,Wunderground v.1.15,2013-06-02 17:38:00,
2013-06-02 10:43:00,86.3,37.8,25.20,SW,234,2.0,6.0,18,0.00,,,0.00,Wunderground v.1.15,2013-06-02 17:43:00,
2013-06-02 10:49:00,86.2,34.7,25.20,ENE,72,2.0,6.0,16,0.00,,,0.00,Wunderground v.1.15,2013-06-02 17:49:00,
2013-06-02 10:54:00,86.7,36.7,25.20,NNW,336,1.0,4.0,17,0.00,,,0.00,Wunderground v.1.15,2013-06-02 17:54:00,
2013-06-02 11:00:00,86.7,35.1,25.20,SW,219,2.0,3.0,16,0.00,,,0.00,Wunderground v.1.15,2013-06-02 18:00:00,
2013-06-02 11:06:00,86.3,36.3,25.20,SSE,163,3.0,7.0,17,0.00,,,0.00,Wunderground v.1.15,2013-06-02 18:06:00,
2013-06-02 11:11:00,86.7,36.7,25.20,SSE,164,4.0,6.0,17,0.00,,,0.00,Wunderground v.1.15,2013-06-02 18:11:00,
2013-06-02 11:17:00,86.8,35.2,25.20,SSE,165,4.0,9.0,16,0.00,,,0.00,Wunderground v.1.15,2013-06-02 18:17:00,
2013-06-02 11:22:00,86.0,34.6,25.20,SSE,149,4.0,8.0,16,0.00,,,0.00,Wunderground v.1.15,2013-06-02 18:22:00,
2013-06-02 11:28:00,86.4,34.9,25.20,NW,315,3.0,8.0,16,0.00,,,0.00,Wunderground v.1.15,2013-06-02 18:28:00,
2013-06-02 11:33:00,87.6,35.9,25.20,SSE,152,3.0,7.0,16,0.00,,,0.00,Wunderground v.1.15,2013-06-02 18:33:00,
2013-06-02 11:38:00,88.3,36.4,25.20,SE,144,4.0,11.0,16,0.00,,,0.00,Wunderground v.1.15,2013-06-02 18:38:00,
2013-06-02 11:43:00,88.3,36.4,25.20,SE,144,3.0,4.0,16,0.00,,,0.00,Wunderground v.1.15,2013-06-02 18:43:00,
2013-06-02 11:49:00,88.7,35.1,25.20,East,92,3.0,10.0,15,0.00,,,0.00,Wunderground v.1.15,2013-06-02 18:49:00,
2013-06-02 11:54:00,87.9,36.1,25.20,NW,316,4.0,8.0,16,0.00,,,0.00,Wunderground v.1.15,2013-06-02 18:54:00,
2013-06-02 12:00:00,87.7,35.9,25.20,WNW,287,4.0,4.0,16,0.00,,,0.00,Wunderground v.1.15,2013-06-02 19:00:00,
2013-06-02 12:06:00,87.9,34.5,27.35,WNW,300,3.0,7.0,15,0.00,,,0.00,Wunderground v.1.15,2013-06-02 19:06:00,
2013-06-02 12:11:00,88.9,33.5,27.35,WNW,292,3.0,3.0,14,0.00,,,0.00,Wunderground v.1.15,2013-06-02 19:11:00,
2013-06-02 12:17:00,89.4,35.7,27.35,SW,233,3.0,11.0,15,0.00,,,0.00,Wunderground v.1.15,2013-06-02 19:17:00,
2013-06-02 12:22:00,89.2,33.8,27.35,SE,132,4.0,7.0,14,0.00,,,0.00,Wunderground v.1.15,2013-06-02 19:22:00,
2013-06-02 12:27:00,89.5,34.0,27.35,SE,146,6.0,11.0,14,0.00,,,0.00,Wunderground v.1.15,2013-06-02 19:27:00,
2013-06-02 12:33:00,89.6,34.1,27.35,SSE,157,7.0,10.0,14,0.00,,,0.00,Wunderground v.1.15,2013-06-02 19:33:00,
2013-06-02 12:39:00,89.3,35.6,27.35,SSE,162,5.0,10.0,15,0.00,,,0.00,Wunderground v.1.15,2013-06-02 19:39:00,
2013-06-02 12:45:00,89.6,34.1,27.35,North,9,4.0,8.0,14,0.00,,,0.00,Wunderground v.1.15,2013-06-02 19:45:00,
2013-06-02 12:50:00,89.5,34.0,27.35,WSW,239,5.0,5.0,14,0.00,,,0.00,Wunderground v.1.15,2013-06-02 19:50:00,
2013-06-02 12:55:00,89.9,32.5,27.35,SE,141,4.0,8.0,13,0.00,,,0.00,Wunderground v.1.15,2013-06-02 19:55:00,
2013-06-02 13:00:00,89.9,32.5,27.35,WSW,237,3.0,3.0,13,0.00,,,0.00,Wunderground v.1.15,2013-06-02 20:00:00,
2013-06-02 13:06:00,90.2,32.7,27.35,SE,136,5.0,12.0,13,0.00,,,0.00,Wunderground v.1.15,2013-06-02 20:06:00,
2013-06-02 13:11:00,90.3,32.8,27.35,East,101,7.0,12.0,13,0.00,,,0.00,Wunderground v.1.15,2013-06-02 20:11:00,
2013-06-02 13:17:00,90.6,33.0,27.35,ESE,106,7.0,12.0,13,0.00,,,0.00,Wunderground v.1.15,2013-06-02 20:17:00,
2013-06-02 13:22:00,91.1,33.4,27.35,NW,309,6.0,6.0,13,0.00,,,0.00,Wunderground v.1.15,2013-06-02 20:22:00,
2013-06-02 13:28:00,91.2,33.5,27.35,SSE,148,4.0,6.0,13,0.00,,,0.00,Wunderground v.1.15,2013-06-02 20:28:00,
2013-06-02 13:33:00,91.2,33.5,27.35,West,273,3.0,6.0,13,0.00,,,0.00,Wunderground v.1.15,2013-06-02 20:33:00,
2013-06-02 13:39:00,90.7,33.1,27.35,WNW,302,5.0,11.0,13,0.00,,,0.00,Wunderground v.1.15,2013-06-02 20:39:00,
2013-06-02 13:45:00,90.3,32.8,27.35,NE,40,5.0,9.0,13,0.00,,,0.00,Wunderground v.1.15,2013-06-02 20:45:00,
2013-06-02 13:50:00,90.3,30.8,27.35,SE,124,4.0,7.0,12,0.00,,,0.00,Wunderground v.1.15,2013-06-02 20:50:00,
2013-06-02 13:55:00,91.1,31.4,27.35,NNW,337,4.0,10.0,12,0.00,,,0.00,Wunderground v.1.15,2013-06-02 20:55:00,
2013-06-02 14:01:00,90.6,33.0,27.35,SE,140,5.0,7.0,13,0.00,,,0.00,Wunderground v.1.15,2013-06-02 21:01:00,
2013-06-02 14:07:00,90.6,31.0,27.35,East,83,5.0,7.0,12,0.00,,,0.00,Wunderground v.1.15,2013-06-02 21:07:00,
2013-06-02 14:12:00,91.7,31.9,27.35,ESE,117,5.0,11.0,12,0.00,,,0.00,Wunderground v.1.15,2013-06-02 21:12:00,
2013-06-02 14:18:00,92.0,32.1,27.35,NNE,17,3.0,11.0,12,0.00,,,0.00,Wunderground v.1.15,2013-06-02 21:18:00,
2013-06-02 14:24:00,91.4,31.6,27.35,NW,323,4.0,17.0,12,0.00,,,0.00,Wunderground v.1.15,2013-06-02 21:24:00,
2013-06-02 14:30:00,91.6,31.8,27.35,SE,138,4.0,5.0,12,0.00,,,0.00,Wunderground v.1.15,2013-06-02 21:30:00,
2013-06-02 14:36:00,91.7,31.9,27.35,SE,128,5.0,9.0,12,0.00,,,0.00,Wunderground v.1.15,2013-06-02 21:36:00,
2013-06-02 14:41:00,91.0,33.3,27.35,NNW,341,6.0,6.0,13,0.00,,,0.00,Wunderground v.1.15,2013-06-02 21:41:00,
2013-06-02 14:47:00,91.0,33.3,27.35,East,79,6.0,17.0,13,0.00,,,0.00,Wunderground v.1.15,2013-06-02 21:47:00,
2013-06-02 14:53:00,91.4,35.5,27.35,SE,142,6.0,14.0,14,0.00,,,0.00,Wunderground v.1.15,2013-06-02 21:53:00,
2013-06-02 14:58:00,91.2,35.3,27.35,SE,134,5.0,14.0,14,0.00,,,0.00,Wunderground v.1.15,2013-06-02 21:58:00,
2013-06-02 15:03:00,92.3,36.2,27.35,ESE,102,4.0,5.0,14,0.00,,,0.00,Wunderground v.1.15,2013-06-02 22:03:00,
2013-06-02 15:09:00,92.6,36.4,27.35,WNW,286,2.0,5.0,14,0.00,,,0.00,Wunderground v.1.15,2013-06-02 22:09:00,
2013-06-02 15:15:00,90.3,36.4,27.35,SE,141,4.0,12.0,15,0.00,,,0.00,Wunderground v.1.15,2013-06-02 22:15:00,
2013-06-02 15:21:00,89.8,36.0,27.35,NNE,16,5.0,6.0,15,0.00,,,0.00,Wunderground v.1.15,2013-06-02 22:21:00,
2013-06-02 15:26:00,90.5,36.5,27.35,SSE,147,4.0,6.0,15,0.00,,,0.00,Wunderground v.1.15,2013-06-02 22:26:00,
2013-06-02 15:32:00,91.2,35.3,27.35,ESE,116,4.0,12.0,14,0.00,,,0.00,Wunderground v.1.15,2013-06-02 22:32:00,
2013-06-02 15:37:00,91.5,35.6,27.35,East,84,6.0,13.0,14,0.00,,,0.00,Wunderground v.1.15,2013-06-02 22:37:00,
2013-06-02 15:43:00,92.2,36.1,27.35,SE,144,4.0,9.0,14,0.00,,,0.00,Wunderground v.1.15,2013-06-02 22:43:00,
2013-06-02 15:48:00,91.8,33.9,27.35,SSE,150,5.0,10.0,13,0.00,,,0.00,Wunderground v.1.15,2013-06-02 22:48:00,
2013-06-02 15:54:00,92.0,34.1,27.35,West,279,5.0,5.0,13,0.00,,,0.00,Wunderground v.1.15,2013-06-02 22:54:00,
2013-06-02 16:00:00,91.6,33.8,27.35,WSW,244,4.0,4.0,13,0.00,,,0.00,Wunderground v.1.15,2013-06-02 23:00:00,
2013-06-02 16:06:00,91.6,33.8,27.35,NW,325,5.0,9.0,13,0.00,,,0.00,Wunderground v.1.15,2013-06-02 23:06:00,
2013-06-02 16:11:00,91.0,33.3,27.35,NE,40,6.0,9.0,13,0.00,,,0.00,Wunderground v.1.15,2013-06-02 23:11:00,
2013-06-02 16:17:00,91.1,33.4,27.35,ENE,75,5.0,9.0,13,0.00,,,0.00,Wunderground v.1.15,2013-06-02 23:17:00,
2013-06-02 16:22:00,91.5,33.7,27.35,ESE,104,2.0,3.0,13,0.00,,,0.00,Wunderground v.1.15,2013-06-02 23:22:00,
2013-06-02 16:27:00,92.0,32.1,27.35,North,9,2.0,4.0,12,0.00,,,0.00,Wunderground v.1.15,2013-06-02 23:27:00,
2013-06-02 16:33:00,92.2,32.3,27.35,NW,310,4.0,13.0,12,0.00,,,0.00,Wunderground v.1.15,2013-06-02 23:33:00,
2013-06-02 16:39:00,91.1,29.3,27.35,SW,214,5.0,13.0,11,0.00,,,0.00,Wunderground v.1.15,2013-06-02 23:39:00,
2013-06-02 16:45:00,90.5,32.9,27.35,South,178,3.0,5.0,13,0.00,,,0.00,Wunderground v.1.15,2013-06-02 23:45:00,
2013-06-02 16:51:00,90.3,30.8,27.35,NW,326,4.0,14.0,12,0.00,,,0.00,Wunderground v.1.15,2013-06-02 23:51:00,
2013-06-02 16:57:00,89.9,28.3,27.35,NW,314,5.0,14.0,11,0.00,,,0.00,Wunderground v.1.15,2013-06-02 23:57:00,
2013-06-02 17:03:00,90.0,30.6,27.35,SE,136,4.0,6.0,12,0.00,,,0.00,Wunderground v.1.15,2013-06-03 00:03:00,
2013-06-02 17:09:00,90.0,30.6,27.35,North,355,4.0,6.0,12,0.00,,,0.00,Wunderground v.1.15,2013-06-03 00:09:00,
2013-06-02 17:15:00,90.3,30.8,27.35,WNW,294,3.0,6.0,12,0.00,,,0.00,Wunderground v.1.15,2013-06-03 00:15:00,
2013-06-02 17:21:00,90.0,30.6,27.35,WNW,299,3.0,4.0,12,0.00,,,0.00,Wunderground v.1.15,2013-06-03 00:21:00,
2013-06-02 17:26:00,89.7,30.3,27.35,SW,217,6.0,11.0,12,0.00,,,0.00,Wunderground v.1.15,2013-06-03 00:26:00,
2013-06-02 17:32:00,89.6,30.2,27.35,NW,325,5.0,6.0,12,0.00,,,0.00,Wunderground v.1.15,2013-06-03 00:32:00,
2013-06-02 17:38:00,89.8,30.4,27.35,NW,307,3.0,9.0,12,0.00,,,0.00,Wunderground v.1.15,2013-06-03 00:38:00,
2013-06-02 17:43:00,89.6,28.1,27.35,NNE,29,4.0,9.0,11,0.00,,,0.00,Wunderground v.1.15,2013-06-03 00:43:00,
2013-06-02 17:48:00,89.4,28.0,27.35,WNW,288,5.0,9.0,11,0.00,,,0.00,Wunderground v.1.15,2013-06-03 00:48:00,
2013-06-02 17:54:00,89.2,27.8,27.35,WNW,292,4.0,7.0,11,0.00,,,0.00,Wunderground v.1.15,2013-06-03 00:54:00,
2013-06-02 18:00:00,89.2,29.9,27.35,NW,321,3.0,6.0,12,0.00,,,0.00,Wunderground v.1.15,2013-06-03 01:00:00,
2013-06-02 18:06:00,88.3,29.2,27.35,WSW,241,4.0,11.0,12,0.00,,,0.00,Wunderground v.1.15,2013-06-03 01:06:00,
2013-06-02 18:11:00,88.0,29.0,27.35,SE,137,4.0,4.0,12,0.00,,,0.00,Wunderground v.1.15,2013-06-03 01:11:00,
2013-06-02 18:17:00,88.1,29.1,27.35,NW,325,3.0,12.0,12,0.00,,,0.00,Wunderground v.1.15,2013-06-03 01:17:00,
2013-06-02 18:23:00,87.8,28.9,27.35,NW,314,3.0,5.0,12,0.00,,,0.00,Wunderground v.1.15,2013-06-03 01:23:00,
2013-06-02 18:28:00,87.1,30.3,27.35,NNW,337,3.0,11.0,13,0.00,,,0.00,Wunderground v.1.15,2013-06-03 01:28:00,
2013-06-02 18:33:00,86.5,31.6,27.35,NNW,331,5.0,8.0,14,0.00,,,0.00,Wunderground v.1.15,2013-06-03 01:33:00,
2013-06-02 18:39:00,86.1,31.3,27.35,NW,310,6.0,8.0,14,0.00,,,0.00,Wunderground v.1.15,2013-06-03 01:39:00,
2013-06-02 18:45:00,85.5,30.8,27.35,NW,320,7.0,10.0,14,0.00,,,0.00,Wunderground v.1.15,2013-06-03 01:45:00,
2013-06-02 18:51:00,84.7,30.2,27.35,NNW,346,7.0,9.0,14,0.00,,,0.00,Wunderground v.1.15,2013-06-03 01:51:00,
2013-06-02 18:56:00,84.2,29.8,27.35,NW,313,5.0,9.0,14,0.00,,,0.00,Wunderground v.1.15,2013-06-03 01:56:00,
2013-06-02 19:02:00,83.9,29.6,27.35,WNW,299,5.0,8.0,14,0.00,,,0.00,Wunderground v.1.15,2013-06-03 02:02:00,
2013-06-02 19:08:00,83.6,29.3,27.35,NW,325,5.0,9.0,14,0.00,,,0.00,Wunderground v.1.15,2013-06-03 02:08:00,
2013-06-02 19:13:00,83.4,29.2,27.35,WSW,237,4.0,7.0,14,0.00,,,0.00,Wunderground v.1.15,2013-06-03 02:13:00,
2013-06-02 19:19:00,83.1,28.9,27.35,NW,325,4.0,7.0,14,0.00,,,0.00,Wunderground v.1.15,2013-06-03 02:19:00,
2013-06-02 19:24:00,82.9,28.8,27.35,West,267,2.0,4.0,14,0.00,,,0.00,Wunderground v.1.15,2013-06-03 02:24:00,
2013-06-02 19:30:00,82.7,28.6,27.35,West,260,2.0,3.0,14,0.00,,,0.00,Wunderground v.1.15,2013-06-03 02:30:00,
2013-06-02 19:35:00,82.4,28.4,27.35,WNW,283,2.0,3.0,14,0.00,,,0.00,Wunderground v.1.15,2013-06-03 02:35:00,
2013-06-02 19:40:00,82.3,26.5,27.35,West,265,2.0,2.0,13,0.00,,,0.00,Wunderground v.1.15,2013-06-03 02:40:00,
2013-06-02 19:46:00,82.1,26.4,27.35,SW,228,3.0,7.0,13,0.00,,,0.00,Wunderground v.1.15,2013-06-03 02:46:00,
2013-06-02 19:52:00,81.9,26.2,27.35,SSW,209,3.0,4.0,13,0.00,,,0.00,Wunderground v.1.15,2013-06-03 02:52:00,
2013-06-02 19:57:00,81.5,25.9,27.35,NW,306,2.0,4.0,13,0.00,,,0.00,Wunderground v.1.15,2013-06-03 02:57:00,
2013-06-02 20:03:00,81.2,25.7,27.35,NW,320,2.0,9.0,13,0.00,,,0.00,Wunderground v.1.15,2013-06-03 03:03:00,
2013-06-02 20:08:00,81.0,25.5,27.35,NW,319,2.0,9.0,13,0.00,,,0.00,Wunderground v.1.15,2013-06-03 03:08:00,
2013-06-02 20:13:00,80.8,25.3,27.35,NW,315,1.0,3.0,13,0.00,,,0.00,Wunderground v.1.15,2013-06-03 03:13:00,
2013-06-02 20:18:00,80.6,25.2,27.35,NW,315,1.0,3.0,13,0.00,,,0.00,Wunderground v.1.15,2013-06-03 03:18:00,
2013-06-02 20:24:00,80.3,24.9,27.35,NW,315,1.0,3.0,13,0.00,,,0.00,Wunderground v.1.15,2013-06-03 03:24:00,
2013-06-02 20:30:00,80.2,24.9,27.35,NNW,329,2.0,2.0,13,0.00,,,0.00,Wunderground v.1.15,2013-06-03 03:30:00,
2013-06-02 20:35:00,80.2,24.9,27.35,WNW,294,3.0,6.0,13,0.00,,,0.00,Wunderground v.1.15,2013-06-03 03:35:00,
2013-06-02 20:41:00,79.9,26.4,27.35,WNW,292,2.0,3.0,14,0.00,,,0.00,Wunderground v.1.15,2013-06-03 03:41:00,
2013-06-02 20:46:00,79.8,26.3,27.35,NW,326,2.0,5.0,14,0.00,,,0.00,Wunderground v.1.15,2013-06-03 03:46:00,
2013-06-02 20:51:00,79.7,26.3,27.35,NW,316,3.0,3.0,14,0.00,,,0.00,Wunderground v.1.15,2013-06-03 03:51:00,
2013-06-02 20:57:00,79.5,26.1,27.35,NNW,337,3.0,9.0,14,0.00,,,0.00,Wunderground v.1.15,2013-06-03 03:57:00,
2013-06-02 21:01:00,79.5,26.1,27.35,NNW,340,3.0,4.0,14,0.00,,,0.00,Wunderground v.1.15,2013-06-03 04:01:00,
2013-06-02 21:02:00,79.5,26.1,27.35,NW,319,3.0,4.0,14,0.00,,,0.00,Wunderground v.1.15,2013-06-03 04:02:00,
2013-06-02 21:03:00,79.4,26.0,27.35,NNW,346,4.0,4.0,14,0.00,,,0.00,Wunderground v.1.15,2013-06-03 04:03:00,
2013-06-02 21:05:00,79.4,26.0,27.35,NW,319,4.0,4.0,14,0.00,,,0.00,Wunderground v.1.15,2013-06-03 04:05:00,
2013-06-02 21:10:00,79.2,25.9,27.35,NW,325,4.0,4.0,14,0.00,,,0.00,Wunderground v.1.15,2013-06-03 04:10:00,
2013-06-02 21:16:00,78.8,25.5,27.35,NW,313,3.0,5.0,14,0.00,,,0.00,Wunderground v.1.15,2013-06-03 04:16:00,
2013-06-02 21:21:00,78.5,25.3,27.35,NW,318,3.0,5.0,14,0.00,,,0.00,Wunderground v.1.15,2013-06-03 04:21:00,
2013-06-02 21:25:00,78.3,25.1,27.35,NW,317,3.0,5.0,14,0.00,,,0.00,Wunderground v.1.15,2013-06-03 04:25:00,
2013-06-02 21:31:00,77.9,24.8,27.35,NNW,348,2.0,5.0,14,0.00,,,0.00,Wunderground v.1.15,2013-06-03 04:31:00,
2013-06-02 21:37:00,77.7,26.3,27.35,NNW,348,2.0,5.0,15,0.00,,,0.00,Wunderground v.1.15,2013-06-03 04:37:00,
2013-06-02 21:42:00,77.7,26.3,27.35,North,355,2.0,3.0,15,0.00,,,0.00,Wunderground v.1.15,2013-06-03 04:42:00,
2013-06-02 21:48:00,77.4,26.1,27.35,North,355,1.0,3.0,15,0.00,,,0.00,Wunderground v.1.15,2013-06-03 04:48:00,
2013-06-02 21:54:00,77.2,27.5,27.35,North,350,2.0,8.0,16,0.00,,,0.00,Wunderground v.1.15,2013-06-03 04:54:00,
2013-06-02 22:00:00,77.3,27.6,27.35,North,350,3.0,8.0,16,0.00,,,0.00,Wunderground v.1.15,2013-06-03 05:00:00,
2013-06-02 22:06:00,77.3,27.6,27.35,NNW,337,2.0,8.0,16,0.00,,,0.00,Wunderground v.1.15,2013-06-03 05:06:00,
2013-06-02 22:11:00,77.5,27.7,27.35,NNW,329,4.0,10.0,16,0.00,,,0.00,Wunderground v.1.15,2013-06-03 05:11:00,
2013-06-02 22:17:00,77.7,27.9,27.35,NW,314,5.0,10.0,16,0.00,,,0.00,Wunderground v.1.15,2013-06-03 05:17:00,
2013-06-02 22:23:00,77.2,29.0,27.35,NW,312,3.0,4.0,17,0.00,,,0.00,Wunderground v.1.15,2013-06-03 05:23:00,
2013-06-02 22:28:00,77.2,29.0,27.35,WNW,300,2.0,8.0,17,0.00,,,0.00,Wunderground v.1.15,2013-06-03 05:28:00,
2013-06-02 22:33:00,77.3,29.1,27.35,WSW,257,2.0,3.0,17,0.00,,,0.00,Wunderground v.1.15,2013-06-03 05:33:00,
2013-06-02 22:39:00,77.3,29.1,27.35,WSW,250,2.0,3.0,17,0.00,,,0.00,Wunderground v.1.15,2013-06-03 05:39:00,
2013-06-02 22:45:00,77.2,29.0,27.35,WSW,250,1.0,3.0,17,0.00,,,0.00,Wunderground v.1.15,2013-06-03 05:45:00,
2013-06-02 22:51:00,76.4,28.3,27.35,WNW,288,1.0,2.0,17,0.00,,,0.00,Wunderground v.1.15,2013-06-03 05:51:00,
2013-06-02 22:56:00,75.8,27.8,27.35,WNW,288,1.0,2.0,17,0.00,,,0.00,Wunderground v.1.15,2013-06-03 05:56:00,
2013-06-02 23:02:00,75.1,28.7,27.35,NNE,28,2.0,4.0,18,0.00,,,0.00,Wunderground v.1.15,2013-06-03 06:02:00,
2013-06-02 23:08:00,74.4,28.1,27.35,NNE,19,2.0,5.0,18,0.00,,,0.00,Wunderground v.1.15,2013-06-03 06:08:00,
2013-06-02 23:13:00,73.8,27.6,27.35,NNE,19,2.0,3.0,18,0.00,,,0.00,Wunderground v.1.15,2013-06-03 06:13:00,
2013-06-02 23:19:00,73.2,28.4,27.35,NNE,19,0.0,3.0,19,0.00,,,0.00,Wunderground v.1.15,2013-06-03 06:19:00,
2013-06-02 23:24:00,72.3,27.7,27.35,NNE,19,0.0,1.0,19,0.00,,,0.00,Wunderground v.1.15,2013-06-03 06:24:00,
2013-06-02 23:30:00,71.7,27.2,27.35,NNE,19,0.0,0.0,19,0.00,,,0.00,Wunderground v.1.15,2013-06-03 06:30:00,
2013-06-02 23:36:00,71.4,28.2,27.35,NNE,19,0.0,0.0,20,0.00,,,0.00,Wunderground v.1.15,2013-06-03 06:36:00,
2013-06-02 23:41:00,71.0,27.9,27.35,NNE,19,0.0,0.0,20,0.00,,,0.00,Wunderground v.1.15,2013-06-03 06:41:00,
2013-06-02 23:46:00,70.9,27.8,27.35,NNE,19,0.0,0.0,20,0.00,,,0.00,Wunderground v.1.15,2013-06-03 06:46:00,
2013-06-02 23:52:00,71.9,28.6,27.35,NNW,330,1.0,6.0,20,0.00,,,0.00,Wunderground v.1.15,2013-06-03 06:52:00,
2013-06-02 23:57:00,73.2,30.9,27.35,NW,316,2.0,6.0,21,0.00,,,0.00,Wunderground v.1.15,2013-06-03 06:57:00,